Hourly Data Report for July 22, 2021

DRYDEN REGIONAL
ONTARIO
Current Station Operator: NAVCAN

49°49'39.000" N
92°44'39.000" W
412.70 m
6032125
71527
YHD

Download Data

Hourly Data (July 2021)
Hourly Data Report for July 22, 2021
TIME
LST
Temp Definition
°C
Dew Point Definition
°C
Rel Hum Definition
%
Precip. Amount Definition
mm

Wind Dir Definition
10's deg

Wind Spd Definition
km/h
Visibility Definition
km
Stn Press Definition
kPa
Hmdx Definition


Wind Chill Definition


Weather Definition


00:00 16.9 11.0 68 0.0 9 8 16.1 96.99     LegendNANA
01:00 16.0 11.2 73 0.0 9 8 16.1 96.97     LegendNANA
02:00 15.6 11.4 76 0.0 8 11 16.1 96.91     LegendNANA
03:00 15.9 11.9 77 0.0 9 8 16.1 96.92     LegendNANA
04:00 15.4 11.4 77 0.0 9 8 16.1 96.92     LegendNANA
05:00 16.2 11.9 75 0.0 15 11 16.1 96.92     LegendNANA
06:00 16.6 12.6 77 0.0 10 9 16.1 96.89     LegendNANA
07:00 16.5 13.6 83 0.0 12 9 14.5 96.90     Rain
08:00 17.6 13.6 77 0.0 14 17 16.1 96.90     LegendNANA
09:00 18.2 14.6 79 0.0 13 13 16.1 96.94     LegendNANA
10:00 18.6 14.9 79 0.0 15 17 16.1 96.94     LegendNANA
11:00 20.6 15.8 73 0.0 13 18 16.1 96.89 25   LegendNANA
12:00 23.4 16.9 66 0.0 15 17 16.1 96.84 29   LegendNANA
13:00 23.8 17.0 65 0.0 17 17 16.1 96.80 29   LegendNANA
14:00 24.0 17.5 66 0.0 12 17 16.1 96.79 30   LegendNANA
15:00 24.6 17.8 65 0.0 11 17 16.1 96.77 30   LegendNANA
16:00 24.1 18.4 70 0.0 14 17 16.1 96.75 30   LegendNANA
17:00 24.0 18.6 71 0.0 13 13 16.1 96.73 30   LegendNANA
18:00 23.5 18.4 73 0.0 13 17 16.1 96.69 30   LegendNANA
19:00 22.6 18.4 77 0.0 11 9 16.1 96.68 29   LegendNANA
20:00 21.3 18.2 82 0.0 12 9 16.1 96.70 27   LegendNANA
21:00 20.3 17.9 86 0.0 13 18 16.1 96.71 26   LegendNANA
22:00 19.6 17.9 90 0.0 14 18 16.1 96.73     LegendNANA
23:00 19.4 17.9 91 0.0 15 18 16.1 96.68     LegendNANA

Notes on Data Quality.

Legend

  • E = Estimated
  • M = Missing
  • NA = Not Available*
  • [empty] = Indicates an unobserved value
Date modified: